Year,Month,Day,Hour,Minute,Value (Times are PST for barometer in hPa)
2020,11,13,00,00,996.07
2020,11,13,00,01,996.04
2020,11,13,00,02,996.01
2020,11,13,00,03,995.97
2020,11,13,00,04,995.97
2020,11,13,00,05,995.90
2020,11,13,00,06,995.90
2020,11,13,00,07,995.80
2020,11,13,00,08,995.70
2020,11,13,00,09,995.67
2020,11,13,00,10,995.63
2020,11,13,00,11,995.63
2020,11,13,00,12,995.56
2020,11,13,00,13,995.50
2020,11,13,00,14,995.46
2020,11,13,00,15,995.40
2020,11,13,00,16,995.36
2020,11,13,00,17,995.29
2020,11,13,00,18,995.26
2020,11,13,00,19,995.23
2020,11,13,00,20,995.19
2020,11,13,00,21,995.12
2020,11,13,00,22,995.12
2020,11,13,00,23,995.16
2020,11,13,00,24,995.19
2020,11,13,00,25,995.12
2020,11,13,00,26,995.06
2020,11,13,00,27,994.92
2020,11,13,00,28,994.89
2020,11,13,00,29,994.79
2020,11,13,00,30,994.72
2020,11,13,00,31,994.68
2020,11,13,00,32,994.62
2020,11,13,00,33,994.62
2020,11,13,00,34,994.52
2020,11,13,00,35,994.52
2020,11,13,00,36,994.45
2020,11,13,00,37,994.41
2020,11,13,00,38,994.35
2020,11,13,00,39,994.35
2020,11,13,00,40,994.28
2020,11,13,00,41,994.24
2020,11,13,00,42,994.14
2020,11,13,00,43,994.14
2020,11,13,00,44,994.11
2020,11,13,00,45,994.11
2020,11,13,00,46,994.07
2020,11,13,00,47,993.97
2020,11,13,00,48,993.97
2020,11,13,00,49,993.91
2020,11,13,00,50,993.87
2020,11,13,00,51,993.84
2020,11,13,00,52,993.83
2020,11,13,00,53,993.67
2020,11,13,00,54,993.66
2020,11,13,00,55,993.53
2020,11,13,00,56,993.50
2020,11,13,00,57,993.47
2020,11,13,00,58,993.43
2020,11,13,00,59,993.47
2020,11,13,01,00,993.36
2020,11,13,01,01,993.30
2020,11,13,01,02,993.23
2020,11,13,01,03,993.09
2020,11,13,01,04,993.03
2020,11,13,01,05,993.06
2020,11,13,01,06,993.09
2020,11,13,01,07,993.03
2020,11,13,01,08,992.92
2020,11,13,01,09,992.96
2020,11,13,01,10,992.89
2020,11,13,01,11,992.82
2020,11,13,01,12,992.72
2020,11,13,01,13,992.65
2020,11,13,01,14,992.62
2020,11,13,01,15,992.62
2020,11,13,01,16,992.58
2020,11,13,01,17,992.52
2020,11,13,01,18,992.47
2020,11,13,01,19,992.35
2020,11,13,01,20,992.31
2020,11,13,01,21,992.25
2020,11,13,01,22,992.21
2020,11,13,01,23,992.28
2020,11,13,01,24,992.25
2020,11,13,01,25,992.21
2020,11,13,01,26,992.11
2020,11,13,01,27,992.08
2020,11,13,01,28,991.98
2020,11,13,01,29,991.94
2020,11,13,01,30,992.01
2020,11,13,01,31,991.94
2020,11,13,01,32,991.91
2020,11,13,01,33,991.87
2020,11,13,01,34,991.87
2020,11,13,01,35,991.81
2020,11,13,01,36,991.73
2020,11,13,01,37,991.64
2020,11,13,01,38,991.57
2020,11,13,01,39,991.57
2020,11,13,01,40,991.50
2020,11,13,01,41,991.47
2020,11,13,01,42,991.47
2020,11,13,01,43,991.43
2020,11,13,01,44,991.40
2020,11,13,01,45,991.33
2020,11,13,01,46,991.30
2020,11,13,01,47,991.22
2020,11,13,01,48,991.13
2020,11,13,01,49,991.09
2020,11,13,01,50,991.03
2020,11,13,01,51,990.96
2020,11,13,01,52,990.96
2020,11,13,01,53,990.93
2020,11,13,01,54,990.89
2020,11,13,01,55,990.89
2020,11,13,01,56,990.86
2020,11,13,01,57,990.82
2020,11,13,01,58,990.76
2020,11,13,01,59,990.69
2020,11,13,02,00,990.52
2020,11,13,02,01,990.45
2020,11,13,02,02,990.35
2020,11,13,02,03,990.35
2020,11,13,02,04,990.28
2020,11,13,02,05,990.25
2020,11,13,02,06,990.18
2020,11,13,02,07,990.15
2020,11,13,02,08,990.15
2020,11,13,02,09,990.08
2020,11,13,02,10,990.08
2020,11,13,02,11,990.08
2020,11,13,02,12,990.08
2020,11,13,02,13,990.08
2020,11,13,02,14,990.04
2020,11,13,02,15,990.04
2020,11,13,02,16,990.01
2020,11,13,02,17,990.01
2020,11,13,02,18,989.98
2020,11,13,02,19,989.98
2020,11,13,02,20,989.94
2020,11,13,02,21,989.91
2020,11,13,02,22,989.84
2020,11,13,02,23,989.84
2020,11,13,02,24,989.81
2020,11,13,02,25,989.84
2020,11,13,02,26,989.84
2020,11,13,02,27,989.74
2020,11,13,02,28,989.77
2020,11,13,02,29,989.77
2020,11,13,02,30,989.77
2020,11,13,02,31,989.71
2020,11,13,02,32,989.71
2020,11,13,02,33,989.67
2020,11,13,02,34,989.57
2020,11,13,02,35,989.54
2020,11,13,02,36,989.50
2020,11,13,02,37,989.44
2020,11,13,02,38,989.40
2020,11,13,02,39,989.40
2020,11,13,02,40,989.30
2020,11,13,02,41,989.27
2020,11,13,02,42,989.20
2020,11,13,02,43,989.16
2020,11,13,02,44,989.16
2020,11,13,02,45,989.06
2020,11,13,02,46,989.06
2020,11,13,02,47,989.03
2020,11,13,02,48,989.00
2020,11,13,02,49,989.00
2020,11,13,02,50,988.93
2020,11,13,02,51,988.89
2020,11,13,02,52,988.89
2020,11,13,02,53,988.83
2020,11,13,02,54,988.83
2020,11,13,02,55,988.76
2020,11,13,02,56,988.72
2020,11,13,02,57,988.62
2020,11,13,02,58,988.55
2020,11,13,02,59,988.52
2020,11,13,03,00,988.55
2020,11,13,03,01,988.45
2020,11,13,03,02,988.41
2020,11,13,03,03,988.32
2020,11,13,03,04,988.32
2020,11,13,03,05,988.28
2020,11,13,03,06,988.22
2020,11,13,03,07,988.22
2020,11,13,03,08,988.22
2020,11,13,03,09,988.25
2020,11,13,03,10,988.25
2020,11,13,03,11,988.18
2020,11,13,03,12,988.11
2020,11,13,03,13,988.11
2020,11,13,03,14,988.01
2020,11,13,03,15,988.05
2020,11,13,03,16,988.01
2020,11,13,03,17,987.91
2020,11,13,03,18,987.88
2020,11,13,03,19,987.81
2020,11,13,03,20,987.78
2020,11,13,03,21,987.71
2020,11,13,03,22,987.71
2020,11,13,03,23,987.71
2020,11,13,03,24,987.67
2020,11,13,03,25,987.64
2020,11,13,03,26,987.57
2020,11,13,03,27,987.54
2020,11,13,03,28,987.51
2020,11,13,03,29,987.57
2020,11,13,03,30,987.54
2020,11,13,03,31,987.54
2020,11,13,03,32,987.51
2020,11,13,03,33,987.40
2020,11,13,03,34,987.37
2020,11,13,03,35,987.34
2020,11,13,03,36,987.30
2020,11,13,03,37,987.36
2020,11,13,03,38,987.23
2020,11,13,03,39,987.23
2020,11,13,03,40,987.23
2020,11,13,03,41,987.17
2020,11,13,03,42,987.13
2020,11,13,03,43,987.03
2020,11,13,03,44,987.00
2020,11,13,03,45,986.96
2020,11,13,03,46,986.93
2020,11,13,03,47,986.86
2020,11,13,03,48,986.86
2020,11,13,03,49,986.86
2020,11,13,03,50,986.86
2020,11,13,03,51,986.93
2020,11,13,03,52,986.93
2020,11,13,03,53,986.86
2020,11,13,03,54,986.72
2020,11,13,03,55,986.59
2020,11,13,03,56,986.59
2020,11,13,03,57,986.56
2020,11,13,03,58,986.49
2020,11,13,03,59,986.46
2020,11,13,04,00,986.42
2020,11,13,04,01,986.35
2020,11,13,04,02,986.29
2020,11,13,04,03,986.25
2020,11,13,04,04,986.18
2020,11,13,04,05,986.25
2020,11,13,04,06,986.18
2020,11,13,04,07,986.18
2020,11,13,04,08,986.22
2020,11,13,04,09,986.15
2020,11,13,04,10,986.12
2020,11,13,04,11,986.15
2020,11,13,04,12,986.18
2020,11,13,04,13,986.18
2020,11,13,04,14,986.08
2020,11,13,04,15,986.05
2020,11,13,04,16,986.08
2020,11,13,04,17,986.08
2020,11,13,04,18,986.08
2020,11,13,04,19,986.15
2020,11,13,04,20,986.15
2020,11,13,04,21,986.15
2020,11,13,04,22,986.15
2020,11,13,04,23,986.22
2020,11,13,04,24,986.29
2020,11,13,04,25,986.22
2020,11,13,04,26,986.22
2020,11,13,04,27,986.22
2020,11,13,04,28,986.25
2020,11,13,04,29,986.29
2020,11,13,04,30,986.25
2020,11,13,04,31,986.18
2020,11,13,04,32,986.18
2020,11,13,04,33,986.18
2020,11,13,04,34,986.15
2020,11,13,04,35,986.18
2020,11,13,04,36,986.18
2020,11,13,04,37,986.29
2020,11,13,04,38,986.25
2020,11,13,04,39,986.25
2020,11,13,04,40,986.18
2020,11,13,04,41,986.12
2020,11,13,04,42,986.15
2020,11,13,04,43,986.15
2020,11,13,04,44,986.22
2020,11,13,04,45,986.18
2020,11,13,04,46,986.15
2020,11,13,04,47,986.12
2020,11,13,04,48,986.12
2020,11,13,04,49,986.12
2020,11,13,04,50,986.12
2020,11,13,04,51,986.12
2020,11,13,04,52,986.18
2020,11,13,04,53,986.12
2020,11,13,04,54,986.12
2020,11,13,04,55,986.15
2020,11,13,04,56,986.12
2020,11,13,04,57,986.08
2020,11,13,04,58,986.12
2020,11,13,04,59,986.08
2020,11,13,05,00,986.05
2020,11,13,05,01,986.05
2020,11,13,05,02,986.08
2020,11,13,05,03,986.05
2020,11,13,05,04,986.08
2020,11,13,05,05,986.12
2020,11,13,05,06,986.15
2020,11,13,05,07,986.18
2020,11,13,05,08,986.25
2020,11,13,05,09,986.32
2020,11,13,05,10,986.32
2020,11,13,05,11,986.39
2020,11,13,05,12,986.46
2020,11,13,05,13,986.49
2020,11,13,05,14,986.52
2020,11,13,05,15,986.52
2020,11,13,05,16,986.56
2020,11,13,05,17,986.56
2020,11,13,05,18,986.49
2020,11,13,05,19,986.46
2020,11,13,05,20,986.35
2020,11,13,05,21,986.29
2020,11,13,05,22,986.29
2020,11,13,05,23,986.25
2020,11,13,05,24,986.25
2020,11,13,05,25,986.29
2020,11,13,05,26,986.29
2020,11,13,05,27,986.29
2020,11,13,05,28,986.25
2020,11,13,05,29,986.18
2020,11,13,05,30,986.15
2020,11,13,05,31,986.08
2020,11,13,05,32,986.02
2020,11,13,05,33,985.91
2020,11,13,05,34,985.78
2020,11,13,05,35,985.64
2020,11,13,05,36,985.61
2020,11,13,05,37,985.47
2020,11,13,05,38,985.37
2020,11,13,05,39,985.37
2020,11,13,05,40,985.34
2020,11,13,05,41,985.30
2020,11,13,05,42,985.30
2020,11,13,05,43,985.27
2020,11,13,05,44,985.27
2020,11,13,05,45,985.30
2020,11,13,05,46,985.34
2020,11,13,05,47,985.37
2020,11,13,05,48,985.38
2020,11,13,05,49,985.57
2020,11,13,05,50,985.64
2020,11,13,05,51,985.71
2020,11,13,05,52,985.68
2020,11,13,05,53,985.64
2020,11,13,05,54,985.64
2020,11,13,05,55,985.54
2020,11,13,05,56,985.51
2020,11,13,05,57,985.54
2020,11,13,05,58,985.57
2020,11,13,05,59,985.61
2020,11,13,06,00,985.61
2020,11,13,06,01,985.64
2020,11,13,06,02,985.57
2020,11,13,06,03,985.51
2020,11,13,06,04,985.54
2020,11,13,06,05,985.54
2020,11,13,06,06,985.47
2020,11,13,06,07,985.47
2020,11,13,06,08,985.47
2020,11,13,06,09,985.54
2020,11,13,06,10,985.57
2020,11,13,06,11,985.57
2020,11,13,06,12,985.57
2020,11,13,06,13,985.61
2020,11,13,06,14,985.57
2020,11,13,06,15,985.54
2020,11,13,06,16,985.57
2020,11,13,06,17,985.54
2020,11,13,06,18,985.54
2020,11,13,06,19,985.54
2020,11,13,06,20,985.61
2020,11,13,06,21,985.64
2020,11,13,06,22,985.64
2020,11,13,06,23,985.57
2020,11,13,06,24,985.61
2020,11,13,06,25,985.61
2020,11,13,06,26,985.57
2020,11,13,06,27,985.61
2020,11,13,06,28,985.57
2020,11,13,06,29,985.57
2020,11,13,06,30,985.68
2020,11,13,06,31,985.74
2020,11,13,06,32,985.81
2020,11,13,06,33,985.71
2020,11,13,06,34,985.68
2020,11,13,06,35,985.74
2020,11,13,06,36,985.81
2020,11,13,06,37,985.85
2020,11,13,06,38,985.85
2020,11,13,06,39,985.78
2020,11,13,06,40,985.74
2020,11,13,06,41,985.95
2020,11,13,06,42,985.95
2020,11,13,06,43,985.78
2020,11,13,06,44,985.71
2020,11,13,06,45,985.78
2020,11,13,06,46,985.85
2020,11,13,06,47,985.85
2020,11,13,06,48,985.74
2020,11,13,06,49,985.68
2020,11,13,06,50,985.78
2020,11,13,06,51,985.88
2020,11,13,06,52,985.81
2020,11,13,06,53,985.78
2020,11,13,06,54,985.68
2020,11,13,06,55,985.71
2020,11,13,06,56,985.71
2020,11,13,06,57,985.78
2020,11,13,06,58,985.81
2020,11,13,06,59,985.77
2020,11,13,07,00,985.64
2020,11,13,07,01,985.77
2020,11,13,07,02,985.78
2020,11,13,07,03,985.74
2020,11,13,07,04,985.85
2020,11,13,07,05,985.85
2020,11,13,07,06,985.78
2020,11,13,07,07,985.78
2020,11,13,07,08,985.74
2020,11,13,07,09,985.68
2020,11,13,07,10,985.67
2020,11,13,07,11,985.58
2020,11,13,07,12,985.74
2020,11,13,07,13,985.85
2020,11,13,07,14,985.85
2020,11,13,07,15,985.81
2020,11,13,07,16,985.81
2020,11,13,07,17,985.91
2020,11,13,07,18,985.95
2020,11,13,07,19,985.91
2020,11,13,07,20,986.02
2020,11,13,07,21,986.12
2020,11,13,07,22,986.15
2020,11,13,07,23,986.15
2020,11,13,07,24,986.12
2020,11,13,07,25,986.12
2020,11,13,07,26,986.22
2020,11,13,07,27,986.18
2020,11,13,07,28,986.18
2020,11,13,07,29,986.18
2020,11,13,07,30,986.22
2020,11,13,07,31,986.25
2020,11,13,07,32,986.22
2020,11,13,07,33,986.35
2020,11,13,07,34,986.32
2020,11,13,07,35,986.28
2020,11,13,07,36,986.09
2020,11,13,07,37,986.18
2020,11,13,07,38,986.35
2020,11,13,07,39,986.35
2020,11,13,07,40,986.35
2020,11,13,07,41,986.42
2020,11,13,07,42,986.39
2020,11,13,07,43,986.39
2020,11,13,07,44,986.46
2020,11,13,07,45,986.46
2020,11,13,07,46,986.46
2020,11,13,07,47,986.52
2020,11,13,07,48,986.49
2020,11,13,07,49,986.49
2020,11,13,07,50,986.52
2020,11,13,07,51,986.49
2020,11,13,07,52,986.52
2020,11,13,07,53,986.49
2020,11,13,07,54,986.56
2020,11,13,07,55,986.49
2020,11,13,07,56,986.56
2020,11,13,07,57,986.49
2020,11,13,07,58,986.56
2020,11,13,07,59,986.56
2020,11,13,08,00,986.56
2020,11,13,08,01,986.59
2020,11,13,08,02,986.56
2020,11,13,08,03,986.62
2020,11,13,08,04,986.56
2020,11,13,08,05,986.59
2020,11,13,08,06,986.56
2020,11,13,08,07,986.56
2020,11,13,08,08,986.59
2020,11,13,08,09,986.56
2020,11,13,08,10,986.52
2020,11,13,08,11,986.59
2020,11,13,08,12,986.56
2020,11,13,08,13,986.59
2020,11,13,08,14,986.62
2020,11,13,08,15,986.59
2020,11,13,08,16,986.59
2020,11,13,08,17,986.62
2020,11,13,08,18,986.62
2020,11,13,08,19,986.73
2020,11,13,08,20,986.73
2020,11,13,08,21,986.73
2020,11,13,08,22,986.73
2020,11,13,08,23,986.73
2020,11,13,08,24,986.69
2020,11,13,08,25,986.73
2020,11,13,08,26,986.79
2020,11,13,08,27,986.76
2020,11,13,08,28,986.69
2020,11,13,08,29,986.76
2020,11,13,08,30,986.69
2020,11,13,08,31,986.76
2020,11,13,08,32,986.69
2020,11,13,08,33,986.73
2020,11,13,08,34,986.69
2020,11,13,08,35,986.66
2020,11,13,08,36,986.76
2020,11,13,08,37,986.79
2020,11,13,08,38,986.79
2020,11,13,08,39,986.86
2020,11,13,08,40,986.86
2020,11,13,08,41,986.90
2020,11,13,08,42,986.93
2020,11,13,08,43,986.90
2020,11,13,08,44,986.93
2020,11,13,08,45,986.96
2020,11,13,08,46,986.96
2020,11,13,08,47,986.86
2020,11,13,08,48,986.96
2020,11,13,08,49,986.93
2020,11,13,08,50,986.93
2020,11,13,08,51,986.96
2020,11,13,08,52,986.96
2020,11,13,08,53,986.96
2020,11,13,08,54,986.93
2020,11,13,08,55,986.93
2020,11,13,08,56,986.93
2020,11,13,08,57,986.79
2020,11,13,08,58,986.79
2020,11,13,08,59,986.79
2020,11,13,09,00,986.73
2020,11,13,09,01,986.69
2020,11,13,09,02,986.78
2020,11,13,09,03,986.69
2020,11,13,09,04,986.66
2020,11,13,09,05,986.69
2020,11,13,09,06,986.73
2020,11,13,09,07,986.69
2020,11,13,09,08,986.66
2020,11,13,09,09,986.89
2020,11,13,09,10,986.76
2020,11,13,09,11,986.76
2020,11,13,09,12,986.69
2020,11,13,09,13,986.73
2020,11,13,09,14,986.74
2020,11,13,09,15,986.86
2020,11,13,09,16,986.90
2020,11,13,09,17,986.83
2020,11,13,09,18,986.86
2020,11,13,09,19,986.93
2020,11,13,09,20,987.00
2020,11,13,09,21,986.93
2020,11,13,09,22,987.06
2020,11,13,09,23,986.97
2020,11,13,09,24,987.10
2020,11,13,09,25,987.06
2020,11,13,09,26,987.13
2020,11,13,09,27,987.06
2020,11,13,09,28,987.21
2020,11,13,09,29,987.30
2020,11,13,09,30,987.30
2020,11,13,09,31,987.30
2020,11,13,09,32,987.44
2020,11,13,09,33,987.40
2020,11,13,09,34,987.51
2020,11,13,09,35,987.54
2020,11,13,09,36,987.52
2020,11,13,09,37,987.61
2020,11,13,09,38,987.64
2020,11,13,09,39,987.67
2020,11,13,09,40,987.64
2020,11,13,09,41,987.78
2020,11,13,09,42,987.78
2020,11,13,09,43,987.74
2020,11,13,09,44,987.84
2020,11,13,09,45,987.78
2020,11,13,09,46,987.88
2020,11,13,09,47,987.78
2020,11,13,09,48,987.88
2020,11,13,09,49,987.84
2020,11,13,09,50,987.91
2020,11,13,09,51,987.84
2020,11,13,09,52,987.91
2020,11,13,09,53,987.91
2020,11,13,09,54,987.95
2020,11,13,09,55,988.05
2020,11,13,09,56,988.05
2020,11,13,09,57,988.08
2020,11,13,09,58,988.15
2020,11,13,09,59,988.15
2020,11,13,10,00,987.98
2020,11,13,10,01,988.05
2020,11,13,10,02,988.11
2020,11,13,10,03,988.11
2020,11,13,10,04,988.18
2020,11,13,10,05,988.35
2020,11,13,10,06,988.26
2020,11,13,10,07,988.35
2020,11,13,10,08,988.26
2020,11,13,10,09,988.42
2020,11,13,10,10,988.45
2020,11,13,10,11,988.36
2020,11,13,10,12,988.49
2020,11,13,10,13,988.59
2020,11,13,10,14,988.55
2020,11,13,10,15,988.66
2020,11,13,10,16,988.76
2020,11,13,10,17,988.66
2020,11,13,10,18,988.69
2020,11,13,10,19,988.76
2020,11,13,10,20,988.86
2020,11,13,10,21,988.83
2020,11,13,10,22,988.80
2020,11,13,10,23,988.95
2020,11,13,10,24,988.83
2020,11,13,10,25,989.00
2020,11,13,10,26,989.03
2020,11,13,10,27,989.03
2020,11,13,10,28,989.13
2020,11,13,10,29,989.13
2020,11,13,10,30,989.21
2020,11,13,10,31,989.31
2020,11,13,10,32,989.47
2020,11,13,10,33,989.40
2020,11,13,10,34,989.57
2020,11,13,10,35,989.47
2020,11,13,10,36,989.57
2020,11,13,10,37,989.50
2020,11,13,10,38,989.60
2020,11,13,10,39,989.60
2020,11,13,10,40,989.67
2020,11,13,10,41,989.71
2020,11,13,10,42,989.71
2020,11,13,10,43,989.88
2020,11,13,10,44,989.84
2020,11,13,10,45,989.88
2020,11,13,10,46,989.91
2020,11,13,10,47,989.94
2020,11,13,10,48,990.04
2020,11,13,10,49,990.15
2020,11,13,10,50,990.21
2020,11,13,10,51,990.25
2020,11,13,10,52,990.28
2020,11,13,10,53,990.34
2020,11,13,10,54,990.26
2020,11,13,10,55,990.35
2020,11,13,10,56,990.38
2020,11,13,10,57,990.32
2020,11,13,10,58,990.42
2020,11,13,10,59,990.38
2020,11,13,11,00,990.45
2020,11,13,11,01,990.38
2020,11,13,11,02,990.52
2020,11,13,11,03,990.62
2020,11,13,11,04,990.55
2020,11,13,11,05,990.62
2020,11,13,11,06,990.62
2020,11,13,11,07,990.76
2020,11,13,11,08,990.79
2020,11,13,11,09,990.79
2020,11,13,11,10,990.86
2020,11,13,11,11,990.80
2020,11,13,11,12,990.99
2020,11,13,11,13,991.16
2020,11,13,11,14,991.06
2020,11,13,11,15,990.96
2020,11,13,11,16,991.07
2020,11,13,11,17,991.20
2020,11,13,11,18,991.09
2020,11,13,11,19,991.20
2020,11,13,11,20,991.23
2020,11,13,11,21,991.23
2020,11,13,11,22,991.13
2020,11,13,11,23,991.29
2020,11,13,11,24,991.17
2020,11,13,11,25,991.30
2020,11,13,11,26,991.32
2020,11,13,11,27,991.13
2020,11,13,11,28,991.22
2020,11,13,11,29,991.13
2020,11,13,11,30,991.20
2020,11,13,11,31,991.33
2020,11,13,11,32,991.40
2020,11,13,11,33,991.40
2020,11,13,11,34,991.40
2020,11,13,11,35,991.37
2020,11,13,11,36,991.40
2020,11,13,11,37,991.40
2020,11,13,11,38,991.47
2020,11,13,11,39,991.30
2020,11,13,11,40,991.40
2020,11,13,11,41,991.33
2020,11,13,11,42,991.30
2020,11,13,11,43,991.37
2020,11,13,11,44,991.43
2020,11,13,11,45,991.43
2020,11,13,11,46,991.43
2020,11,13,11,47,991.47
2020,11,13,11,48,991.40
2020,11,13,11,49,991.43
2020,11,13,11,50,991.53
2020,11,13,11,51,991.43
2020,11,13,11,52,991.30
2020,11,13,11,53,991.33
2020,11,13,11,54,991.40
2020,11,13,11,55,991.37
2020,11,13,11,56,991.40
2020,11,13,11,57,991.53
2020,11,13,11,58,991.53
2020,11,13,11,59,991.59
2020,11,13,12,00,991.50
2020,11,13,12,01,991.67
2020,11,13,12,02,991.64
2020,11,13,12,03,991.64
2020,11,13,12,04,991.67
2020,11,13,12,05,991.70
2020,11,13,12,06,991.70
2020,11,13,12,07,991.87
2020,11,13,12,08,991.81
2020,11,13,12,09,991.91
2020,11,13,12,10,992.01
2020,11,13,12,11,991.94
2020,11,13,12,12,992.02
2020,11,13,12,13,992.17
2020,11,13,12,14,992.08
2020,11,13,12,15,992.18
2020,11,13,12,16,992.25
2020,11,13,12,17,992.28
2020,11,13,12,18,992.45
2020,11,13,12,19,992.28
2020,11,13,12,20,992.35
2020,11,13,12,21,992.35
2020,11,13,12,22,992.28
2020,11,13,12,23,992.45
2020,11,13,12,24,992.35
2020,11,13,12,25,992.35
2020,11,13,12,26,992.43
2020,11,13,12,27,992.61
2020,11,13,12,28,992.51
2020,11,13,12,29,992.35
2020,11,13,12,30,992.52
2020,11,13,12,31,992.48
2020,11,13,12,32,992.52
2020,11,13,12,33,992.62
2020,11,13,12,34,992.58
2020,11,13,12,35,992.62
2020,11,13,12,36,992.75
2020,11,13,12,37,992.79
2020,11,13,12,38,992.82
2020,11,13,12,39,992.89
2020,11,13,12,40,992.96
2020,11,13,12,41,992.90
2020,11,13,12,42,992.99
2020,11,13,12,43,992.96
2020,11,13,12,44,992.96
2020,11,13,12,45,992.96
2020,11,13,12,46,992.99
2020,11,13,12,47,992.96
2020,11,13,12,48,992.87
2020,11,13,12,49,993.06
2020,11,13,12,50,993.09
2020,11,13,12,51,993.06
2020,11,13,12,52,993.09
2020,11,13,12,53,993.16
2020,11,13,12,54,993.30
2020,11,13,12,55,993.23
2020,11,13,12,56,993.16
2020,11,13,12,57,993.26
2020,11,13,12,58,993.26
2020,11,13,12,59,993.30
2020,11,13,13,00,993.30
2020,11,13,13,01,993.20
2020,11,13,13,02,993.33
2020,11,13,13,03,993.43
2020,11,13,13,04,993.40
2020,11,13,13,05,993.40
2020,11,13,13,06,993.47
2020,11,13,13,07,993.43
2020,11,13,13,08,993.40
2020,11,13,13,09,993.47
2020,11,13,13,10,993.57
2020,11,13,13,11,993.53
2020,11,13,13,12,993.60
2020,11,13,13,13,993.57
2020,11,13,13,14,993.63
2020,11,13,13,15,993.60
2020,11,13,13,16,993.74
2020,11,13,13,17,993.74
2020,11,13,13,18,993.77
2020,11,13,13,19,993.80
2020,11,13,13,20,993.74
2020,11,13,13,21,993.94
2020,11,13,13,22,993.94
2020,11,13,13,23,993.97
2020,11,13,13,24,993.94
2020,11,13,13,25,993.91
2020,11,13,13,26,993.91
2020,11,13,13,27,994.03
2020,11,13,13,28,993.94
2020,11,13,13,29,993.80
2020,11,13,13,30,993.84
2020,11,13,13,31,993.84
2020,11,13,13,32,993.91
2020,11,13,13,33,993.97
2020,11,13,13,34,994.04
2020,11,13,13,35,994.01
2020,11,13,13,36,994.07
2020,11,13,13,37,994.14
2020,11,13,13,38,994.21
2020,11,13,13,39,994.21
2020,11,13,13,40,994.38
2020,11,13,13,41,994.38
2020,11,13,13,42,994.52
2020,11,13,13,43,994.52
2020,11,13,13,44,994.41
2020,11,13,13,45,994.65
2020,11,13,13,46,994.55
2020,11,13,13,47,994.66
2020,11,13,13,48,994.75
2020,11,13,13,49,994.82
2020,11,13,13,50,994.72
2020,11,13,13,51,994.79
2020,11,13,13,52,994.89
2020,11,13,13,53,994.96
2020,11,13,13,54,994.85
2020,11,13,13,55,994.85
2020,11,13,13,56,994.96
2020,11,13,13,57,994.99
2020,11,13,13,58,994.99
2020,11,13,13,59,995.01
2020,11,13,14,00,994.89
2020,11,13,14,01,995.02
2020,11,13,14,02,995.16
2020,11,13,14,03,995.06
2020,11,13,14,04,995.09
2020,11,13,14,05,995.16
2020,11,13,14,06,995.02
2020,11,13,14,07,995.09
2020,11,13,14,08,995.12
2020,11,13,14,09,995.12
2020,11,13,14,10,995.12
2020,11,13,14,11,995.09
2020,11,13,14,12,995.19
2020,11,13,14,13,995.19
2020,11,13,14,14,995.20
2020,11,13,14,15,995.29
2020,11,13,14,16,995.35
2020,11,13,14,17,995.27
2020,11,13,14,18,995.41
2020,11,13,14,19,995.53
2020,11,13,14,20,995.46
2020,11,13,14,21,995.53
2020,11,13,14,22,995.60
2020,11,13,14,23,995.70
2020,11,13,14,24,995.80
2020,11,13,14,25,995.73
2020,11,13,14,26,995.80
2020,11,13,14,27,995.77
2020,11,13,14,28,995.84
2020,11,13,14,29,995.87
2020,11,13,14,30,995.97
2020,11,13,14,31,995.97
2020,11,13,14,32,995.97
2020,11,13,14,33,996.01
2020,11,13,14,34,996.04
2020,11,13,14,35,996.07
2020,11,13,14,36,996.04
2020,11,13,14,37,996.17
2020,11,13,14,38,996.28
2020,11,13,14,39,996.38
2020,11,13,14,40,996.28
2020,11,13,14,41,996.45
2020,11,13,14,42,996.38
2020,11,13,14,43,996.34
2020,11,13,14,44,996.41
2020,11,13,14,45,996.34
2020,11,13,14,46,996.29
2020,11,13,14,47,996.45
2020,11,13,14,48,996.45
2020,11,13,14,49,996.51
2020,11,13,14,50,996.41
2020,11,13,14,51,996.46
2020,11,13,14,52,996.58
2020,11,13,14,53,996.51
2020,11,13,14,54,996.61
2020,11,13,14,55,996.65
2020,11,13,14,56,996.68
2020,11,13,14,57,996.68
2020,11,13,14,58,996.82
2020,11,13,14,59,996.89
2020,11,13,15,00,996.92
2020,11,13,15,01,997.02
2020,11,13,15,02,996.95
2020,11,13,15,03,996.99
2020,11,13,15,04,997.03
2020,11,13,15,05,997.16
2020,11,13,15,06,997.12
2020,11,13,15,07,997.22
2020,11,13,15,08,997.16
2020,11,13,15,09,997.12
2020,11,13,15,10,997.12
2020,11,13,15,11,997.16
2020,11,13,15,12,997.09
2020,11,13,15,13,997.12
2020,11,13,15,14,997.12
2020,11,13,15,15,997.22
2020,11,13,15,16,997.26
2020,11,13,15,17,997.26
2020,11,13,15,18,997.29
2020,11,13,15,19,997.39
2020,11,13,15,20,997.43
2020,11,13,15,21,997.40
2020,11,13,15,22,997.50
2020,11,13,15,23,997.46
2020,11,13,15,24,997.53
2020,11,13,15,25,997.50
2020,11,13,15,26,997.56
2020,11,13,15,27,997.56
2020,11,13,15,28,997.53
2020,11,13,15,29,997.53
2020,11,13,15,30,997.60
2020,11,13,15,31,997.63
2020,11,13,15,32,997.63
2020,11,13,15,33,997.66
2020,11,13,15,34,997.77
2020,11,13,15,35,997.73
2020,11,13,15,36,997.80
2020,11,13,15,37,997.73
2020,11,13,15,38,997.87
2020,11,13,15,39,997.90
2020,11,13,15,40,997.90
2020,11,13,15,41,997.88
2020,11,13,15,42,998.00
2020,11,13,15,43,998.00
2020,11,13,15,44,997.91
2020,11,13,15,45,998.10
2020,11,13,15,46,998.04
2020,11,13,15,47,998.10
2020,11,13,15,48,998.10
2020,11,13,15,49,998.14
2020,11,13,15,50,998.14
2020,11,13,15,51,998.10
2020,11,13,15,52,998.00
2020,11,13,15,53,998.07
2020,11,13,15,54,998.10
2020,11,13,15,55,998.17
2020,11,13,15,56,998.21
2020,11,13,15,57,998.24
2020,11,13,15,58,998.17
2020,11,13,15,59,998.24
2020,11,13,16,00,998.27
2020,11,13,16,01,998.27
2020,11,13,16,02,998.34
2020,11,13,16,03,998.38
2020,11,13,16,04,998.38
2020,11,13,16,05,998.44
2020,11,13,16,06,998.54
2020,11,13,16,07,998.58
2020,11,13,16,08,998.58
2020,11,13,16,09,998.61
2020,11,13,16,10,998.61
2020,11,13,16,11,998.68
2020,11,13,16,12,998.75
2020,11,13,16,13,998.71
2020,11,13,16,14,998.68
2020,11,13,16,15,998.71
2020,11,13,16,16,998.71
2020,11,13,16,17,998.69
2020,11,13,16,18,998.82
2020,11,13,16,19,998.88
2020,11,13,16,20,998.92
2020,11,13,16,21,998.92
2020,11,13,16,22,998.95
2020,11,13,16,23,999.02
2020,11,13,16,24,999.02
2020,11,13,16,25,999.05
2020,11,13,16,26,999.09
2020,11,13,16,27,999.05
2020,11,13,16,28,999.15
2020,11,13,16,29,999.15
2020,11,13,16,30,999.19
2020,11,13,16,31,999.22
2020,11,13,16,32,999.19
2020,11,13,16,33,999.22
2020,11,13,16,34,999.16
2020,11,13,16,35,999.29
2020,11,13,16,36,999.32